Time,TemperatureF,DewpointF,PressureIn,WindDirection,WindDirectionDegrees,WindSpeedMPH,WindSpeedGustMPH,Humidity,HourlyPrecipIn,Conditions,Clouds,dailyrainin,SoftwareType,DateUTC
2013-02-21 00:00:00,17.1,12.0,30.21,WNW,292,0.0,0.0,80,0.00,,,0.00,VWS V14.01,2013-02-21 05:00:00,
2013-02-21 00:05:00,16.9,11.6,30.21,WNW,292,11.7,11.7,80,0.00,,,0.00,VWS V14.01,2013-02-21 05:05:00,
2013-02-21 00:10:00,16.9,11.5,30.21,WNW,292,11.7,11.7,79,0.00,,,0.00,VWS V14.01,2013-02-21 05:10:00,
2013-02-21 00:15:00,16.9,11.9,30.21,WNW,292,11.7,11.7,80,0.00,,,0.00,VWS V14.01,2013-02-21 05:15:00,
2013-02-21 00:20:00,16.7,11.3,30.21,WNW,292,11.7,11.7,79,0.00,,,0.00,VWS V14.01,2013-02-21 05:20:00,
2013-02-21 00:25:00,16.5,11.3,30.21,WNW,292,11.7,11.7,80,0.00,,,0.00,VWS V14.01,2013-02-21 05:25:00,
2013-02-21 00:30:00,16.5,11.3,30.21,WNW,292,11.7,11.7,80,0.00,,,0.00,VWS V14.01,2013-02-21 05:30:00,
2013-02-21 00:43:00,16.2,10.8,30.21,NW,315,6.7,6.7,79,0.00,,,0.00,VWS V14.01,2013-02-21 05:43:00,
2013-02-21 00:48:00,16.0,10.8,30.21,NW,315,6.7,6.7,80,0.00,,,0.00,VWS V14.01,2013-02-21 05:48:00,
2013-02-21 00:53:00,16.0,10.8,30.21,NW,315,6.7,6.7,80,0.00,,,0.00,VWS V14.01,2013-02-21 05:53:00,
2013-02-21 00:58:00,16.0,10.8,30.21,NW,315,6.7,6.7,80,0.00,,,0.00,VWS V14.01,2013-02-21 05:58:00,
2013-02-21 01:03:00,16.0,10.6,30.21,NE,45,3.4,3.4,79,0.00,,,0.00,VWS V14.01,2013-02-21 06:03:00,
2013-02-21 01:08:00,16.0,10.6,30.21,NE,45,3.4,3.4,79,0.00,,,0.00,VWS V14.01,2013-02-21 06:08:00,
2013-02-21 01:13:00,16.0,10.6,30.24,NE,45,3.4,3.4,79,0.00,,,0.00,VWS V14.01,2013-02-21 06:13:00,
2013-02-21 01:18:00,16.0,10.6,30.24,NE,45,3.4,3.4,79,0.00,,,0.00,VWS V14.01,2013-02-21 06:18:00,
2013-02-21 01:23:00,16.0,11.1,30.24,NE,45,3.4,3.4,80,0.00,,,0.00,VWS V14.01,2013-02-21 06:23:00,
2013-02-21 01:28:00,16.0,10.8,30.24,NE,45,3.4,3.4,80,0.00,,,0.00,VWS V14.01,2013-02-21 06:28:00,
2013-02-21 01:33:00,15.8,10.9,30.24,NE,45,3.4,3.4,80,0.00,,,0.00,VWS V14.01,2013-02-21 06:33:00,
2013-02-21 01:38:00,15.8,10.9,30.24,NE,45,3.4,3.4,80,0.00,,,0.00,VWS V14.01,2013-02-21 06:38:00,
2013-02-21 01:43:00,15.8,11.1,30.27,NE,45,3.4,3.4,82,0.00,,,0.00,VWS V14.01,2013-02-21 06:43:00,
2013-02-21 01:48:00,15.8,10.9,30.27,NE,45,3.4,3.4,80,0.00,,,0.00,VWS V14.01,2013-02-21 06:48:00,
2013-02-21 01:53:00,15.8,10.9,30.27,NE,45,3.4,3.4,80,0.00,,,0.00,VWS V14.01,2013-02-21 06:53:00,
2013-02-21 01:58:00,15.8,11.1,30.24,NE,45,3.4,3.4,82,0.00,,,0.00,VWS V14.01,2013-02-21 06:58:00,
2013-02-21 02:03:00,15.8,11.1,30.24,NW,315,0.0,2.9,82,0.00,,,0.00,VWS V14.01,2013-02-21 07:03:00,
2013-02-21 02:08:00,16.0,11.3,30.24,NW,315,3.9,3.9,82,0.00,,,0.00,VWS V14.01,2013-02-21 07:08:00,
2013-02-21 02:13:00,16.0,11.3,30.27,NW,315,5.0,5.0,82,0.00,,,0.00,VWS V14.01,2013-02-21 07:13:00,
2013-02-21 02:18:00,16.0,11.2,30.27,WSW,248,5.6,5.6,81,0.00,,,0.00,VWS V14.01,2013-02-21 07:18:00,
2013-02-21 02:23:00,16.0,11.3,30.27,WNW,292,2.8,2.8,82,0.00,,,0.00,VWS V14.01,2013-02-21 07:23:00,
2013-02-21 02:28:00,16.0,11.6,30.27,WSW,248,6.2,6.2,82,0.00,,,0.00,VWS V14.01,2013-02-21 07:28:00,
2013-02-21 02:33:00,15.8,11.6,30.27,NW,315,10.6,10.6,83,0.00,,,0.00,VWS V14.01,2013-02-21 07:33:00,
2013-02-21 02:38:00,15.8,11.4,30.27,NE,45,7.3,7.3,82,0.00,,,0.00,VWS V14.01,2013-02-21 07:38:00,
2013-02-21 02:43:00,15.8,11.3,30.27,NW,315,2.8,2.8,82,0.00,,,0.00,VWS V14.01,2013-02-21 07:43:00,
2013-02-21 02:48:00,15.8,11.3,30.27,WSW,248,0.0,0.0,82,0.00,,,0.00,VWS V14.01,2013-02-21 07:48:00,
2013-02-21 02:53:00,15.8,11.3,30.27,NE,45,2.8,4.3,82,0.00,,,0.00,VWS V14.01,2013-02-21 07:53:00,
2013-02-21 02:58:00,15.6,11.1,30.27,NE,45,7.8,7.8,82,0.00,,,0.00,VWS V14.01,2013-02-21 07:58:00,
2013-02-21 03:03:00,15.6,11.1,30.27,NW,315,0.0,0.0,82,0.00,,,0.00,VWS V14.01,2013-02-21 08:03:00,
2013-02-21 03:08:00,15.6,11.1,30.27,NW,315,3.9,6.3,82,0.00,,,0.00,VWS V14.01,2013-02-21 08:08:00,
2013-02-21 03:13:00,15.6,11.1,30.27,NE,45,2.2,2.2,82,0.00,,,0.00,VWS V14.01,2013-02-21 08:13:00,
2013-02-21 03:18:00,15.4,10.9,30.27,NW,315,0.0,0.0,82,0.00,,,0.00,VWS V14.01,2013-02-21 08:18:00,
2013-02-21 03:23:00,15.4,10.9,30.27,NE,45,5.0,5.0,82,0.00,,,0.00,VWS V14.01,2013-02-21 08:23:00,
2013-02-21 03:28:00,15.4,10.9,30.27,NE,45,2.2,4.3,82,0.00,,,0.00,VWS V14.01,2013-02-21 08:28:00,
2013-02-21 03:33:00,15.4,10.9,30.27,NW,315,2.8,2.8,82,0.00,,,0.00,VWS V14.01,2013-02-21 08:33:00,
2013-02-21 03:38:00,15.4,11.1,30.27,NW,315,3.9,3.9,82,0.00,,,0.00,VWS V14.01,2013-02-21 08:38:00,
2013-02-21 03:43:00,15.4,10.9,30.27,SSW,202,0.0,0.0,82,0.00,,,0.00,VWS V14.01,2013-02-21 08:43:00,
2013-02-21 03:48:00,15.3,10.8,30.27,NE,45,6.7,6.7,82,0.00,,,0.00,VWS V14.01,2013-02-21 08:48:00,
2013-02-21 03:53:00,15.3,10.8,30.27,WNW,292,2.8,2.8,82,0.00,,,0.00,VWS V14.01,2013-02-21 08:53:00,
2013-02-21 03:58:00,15.3,10.9,30.27,NE,45,6.2,6.2,82,0.00,,,0.00,VWS V14.01,2013-02-21 08:58:00,
2013-02-21 04:03:00,15.3,10.8,30.27,WSW,248,5.0,5.0,82,0.00,,,0.00,VWS V14.01,2013-02-21 09:03:00,
2013-02-21 04:08:00,15.3,10.8,30.27,WNW,292,0.0,0.0,82,0.00,,,0.00,VWS V14.01,2013-02-21 09:08:00,
2013-02-21 04:13:00,15.3,10.9,30.27,NE,45,3.9,3.9,82,0.00,,,0.00,VWS V14.01,2013-02-21 09:13:00,
2013-02-21 04:18:00,15.4,11.1,30.27,SSW,202,2.8,2.8,82,0.00,,,0.00,VWS V14.01,2013-02-21 09:18:00,
2013-02-21 04:23:00,15.3,10.8,30.27,WSW,248,3.9,3.9,82,0.00,,,0.00,VWS V14.01,2013-02-21 09:23:00,
2013-02-21 04:28:00,15.3,10.8,30.27,NW,315,2.2,2.2,82,0.00,,,0.00,VWS V14.01,2013-02-21 09:28:00,
2013-02-21 04:34:00,15.4,10.9,30.27,NW,315,0.0,3.4,82,0.00,,,0.00,VWS V14.01,2013-02-21 09:34:00,
2013-02-21 04:39:00,15.4,10.9,30.27,West,270,0.0,6.7,82,0.00,,,0.00,VWS V14.01,2013-02-21 09:39:00,
2013-02-21 04:44:00,15.4,10.9,30.27,NW,315,0.0,0.0,82,0.00,,,0.00,VWS V14.01,2013-02-21 09:44:00,
2013-02-21 04:49:00,15.4,10.9,30.27,NE,45,3.4,3.4,82,0.00,,,0.00,VWS V14.01,2013-02-21 09:49:00,
2013-02-21 04:54:00,15.4,10.9,30.30,SSW,202,0.0,2.4,82,0.00,,,0.00,VWS V14.01,2013-02-21 09:54:00,
2013-02-21 04:59:00,15.4,10.8,30.30,NW,315,3.4,4.8,82,0.00,,,0.00,VWS V14.01,2013-02-21 09:59:00,
2013-02-21 05:04:00,15.4,10.9,30.30,WNW,292,3.4,3.4,82,0.00,,,0.00,VWS V14.01,2013-02-21 10:04:00,
2013-02-21 05:09:00,15.4,10.9,30.27,WNW,292,3.9,3.9,82,0.00,,,0.00,VWS V14.01,2013-02-21 10:09:00,
2013-02-21 05:14:00,15.4,10.9,30.27,WSW,248,0.0,3.4,82,0.00,,,0.00,VWS V14.01,2013-02-21 10:14:00,
2013-02-21 05:19:00,15.4,10.9,30.27,WNW,292,3.9,7.2,82,0.00,,,0.00,VWS V14.01,2013-02-21 10:19:00,
2013-02-21 05:24:00,15.4,10.9,30.27,SW,225,3.9,6.3,82,0.00,,,0.00,VWS V14.01,2013-02-21 10:24:00,
2013-02-21 05:29:00,15.4,10.9,30.27,WNW,292,2.2,7.2,82,0.00,,,0.00,VWS V14.01,2013-02-21 10:29:00,
2013-02-21 05:34:00,15.4,10.9,30.27,NW,315,0.0,4.3,82,0.00,,,0.00,VWS V14.01,2013-02-21 10:34:00,
2013-02-21 05:39:00,15.4,10.9,30.27,West,270,3.4,6.7,82,0.00,,,0.00,VWS V14.01,2013-02-21 10:39:00,
2013-02-21 05:44:00,15.4,10.9,30.27,NW,315,0.0,0.0,82,0.00,,,0.00,VWS V14.01,2013-02-21 10:44:00,
2013-02-21 05:49:00,15.4,10.9,30.27,NW,315,5.0,5.0,82,0.00,,,0.00,VWS V14.01,2013-02-21 10:49:00,
2013-02-21 05:54:00,15.4,10.9,30.27,NE,45,2.8,2.8,82,0.00,,,0.00,VWS V14.01,2013-02-21 10:54:00,
2013-02-21 05:59:00,15.4,10.9,30.27,NW,315,0.0,0.0,82,0.00,,,0.00,VWS V14.01,2013-02-21 10:59:00,
2013-02-21 06:04:00,15.6,11.1,30.27,NW,315,3.4,3.4,82,0.00,,,0.00,VWS V14.01,2013-02-21 11:04:00,
2013-02-21 06:09:00,15.4,10.9,30.30,NW,315,2.2,5.8,82,0.00,,,0.00,VWS V14.01,2013-02-21 11:09:00,
2013-02-21 06:14:00,15.4,10.9,30.30,WNW,292,0.0,2.4,82,0.00,,,0.00,VWS V14.01,2013-02-21 11:14:00,
2013-02-21 06:19:00,15.4,10.9,30.30,NW,315,0.0,0.0,82,0.00,,,0.00,VWS V14.01,2013-02-21 11:19:00,
2013-02-21 06:24:00,15.4,10.8,30.30,NE,45,3.4,3.4,82,0.00,,,0.00,VWS V14.01,2013-02-21 11:24:00,
2013-02-21 06:29:00,15.4,10.5,30.30,NW,315,8.4,8.4,80,0.00,,,0.00,VWS V14.01,2013-02-21 11:29:00,
2013-02-21 06:34:00,15.3,10.2,30.30,NW,315,3.4,3.4,80,0.00,,,0.00,VWS V14.01,2013-02-21 11:34:00,
2013-02-21 06:39:00,15.3,10.2,30.30,NE,45,7.3,7.3,80,0.00,,,0.00,VWS V14.01,2013-02-21 11:39:00,
2013-02-21 06:44:00,15.3,10.2,30.30,NW,315,5.0,6.3,80,0.00,,,0.00,VWS V14.01,2013-02-21 11:44:00,
2013-02-21 06:49:00,15.3,10.2,30.30,WNW,292,3.4,6.3,80,0.00,,,0.00,VWS V14.01,2013-02-21 11:49:00,
2013-02-21 06:54:00,15.3,10.2,30.30,NE,45,6.2,6.2,80,0.00,,,0.00,VWS V14.01,2013-02-21 11:54:00,
2013-02-21 06:59:00,15.3,10.2,30.30,WNW,292,5.6,5.6,80,0.00,,,0.00,VWS V14.01,2013-02-21 11:59:00,
2013-02-21 07:04:00,15.1,10.2,30.30,WNW,292,2.8,7.2,80,0.00,,,0.00,VWS V14.01,2013-02-21 12:04:00,
2013-02-21 07:09:00,15.1,10.2,30.33,NE,45,2.2,2.2,80,0.00,,,0.00,VWS V14.01,2013-02-21 12:09:00,
2013-02-21 07:14:00,15.1,10.3,30.33,NW,315,3.4,5.8,81,0.00,,,0.00,VWS V14.01,2013-02-21 12:14:00,
2013-02-21 07:19:00,15.1,10.3,30.33,NE,45,3.4,3.4,81,0.00,,,0.00,VWS V14.01,2013-02-21 12:19:00,
2013-02-21 07:24:00,15.1,10.2,30.33,WSW,248,2.8,2.8,80,0.00,,,0.00,VWS V14.01,2013-02-21 12:24:00,
2013-02-21 07:29:00,14.9,9.7,30.33,NW,315,2.8,7.7,80,0.00,,,0.00,VWS V14.01,2013-02-21 12:29:00,
2013-02-21 07:34:00,14.9,9.7,30.33,NW,315,5.0,5.0,80,0.00,,,0.00,VWS V14.01,2013-02-21 12:34:00,
2013-02-21 07:39:00,14.7,9.8,30.33,NW,315,2.2,2.2,80,0.00,,,0.00,VWS V14.01,2013-02-21 12:39:00,
2013-02-21 07:44:00,14.7,10.0,30.33,East,90,8.4,8.4,81,0.00,,,0.00,VWS V14.01,2013-02-21 12:44:00,
2013-02-21 07:49:00,14.7,10.0,30.33,NW,315,5.0,5.0,81,0.00,,,0.00,VWS V14.01,2013-02-21 12:49:00,
2013-02-21 07:54:00,14.7,10.0,30.36,NW,315,0.0,0.0,81,0.00,,,0.00,VWS V14.01,2013-02-21 12:54:00,
2013-02-21 07:59:00,14.9,10.4,30.36,NE,45,6.7,6.7,82,0.00,,,0.00,VWS V14.01,2013-02-21 12:59:00,
2013-02-21 08:04:00,14.9,10.3,30.36,NW,315,3.9,5.8,82,0.00,,,0.00,VWS V14.01,2013-02-21 13:04:00,
2013-02-21 08:09:00,14.9,10.3,30.39,NW,315,6.7,6.7,82,0.00,,,0.00,VWS V14.01,2013-02-21 13:09:00,
2013-02-21 08:14:00,14.9,10.3,30.39,WNW,292,3.4,3.4,82,0.00,,,0.00,VWS V14.01,2013-02-21 13:14:00,
2013-02-21 08:19:00,15.1,10.4,30.39,NW,315,0.0,0.0,82,0.00,,,0.00,VWS V14.01,2013-02-21 13:19:00,
2013-02-21 08:24:00,15.1,10.6,30.36,East,90,0.0,0.0,82,0.00,,,0.00,VWS V14.01,2013-02-21 13:24:00,
2013-02-21 08:29:00,15.3,10.8,30.36,NW,315,2.8,2.8,82,0.00,,,0.00,VWS V14.01,2013-02-21 13:29:00,
2013-02-21 08:34:00,15.3,10.9,30.36,NE,45,9.5,9.5,82,0.00,,,0.00,VWS V14.01,2013-02-21 13:34:00,
2013-02-21 08:39:00,15.3,10.8,30.36,NW,315,5.6,5.6,82,0.00,,,0.00,VWS V14.01,2013-02-21 13:39:00,
2013-02-21 08:44:00,15.4,11.1,30.36,NW,315,7.8,7.8,82,0.00,,,0.00,VWS V14.01,2013-02-21 13:44:00,
2013-02-21 08:49:00,15.6,11.2,30.36,ESE,112,3.9,4.3,82,0.00,,,0.00,VWS V14.01,2013-02-21 13:49:00,
2013-02-21 08:54:00,15.4,10.8,30.39,ENE,68,5.0,5.0,82,0.00,,,0.00,VWS V14.01,2013-02-21 13:54:00,
2013-02-21 08:59:00,15.4,10.5,30.39,NE,45,5.0,5.0,80,0.00,,,0.00,VWS V14.01,2013-02-21 13:59:00,
2013-02-21 09:04:00,15.3,10.2,30.39,NW,315,7.3,8.7,80,0.00,,,0.00,VWS V14.01,2013-02-21 14:04:00,
2013-02-21 09:09:00,15.4,10.2,30.36,NE,45,3.4,3.4,80,0.00,,,0.00,VWS V14.01,2013-02-21 14:09:00,
2013-02-21 09:14:00,15.8,10.7,30.36,ESE,112,7.8,7.8,80,0.00,,,0.00,VWS V14.01,2013-02-21 14:14:00,
2013-02-21 09:19:00,15.8,10.6,30.36,NE,45,0.0,10.1,80,0.00,,,0.00,VWS V14.01,2013-02-21 14:19:00,
2013-02-21 09:24:00,16.0,10.6,30.36,NW,315,3.9,3.9,79,0.00,,,0.00,VWS V14.01,2013-02-21 14:24:00,
2013-02-21 09:29:00,15.8,10.3,30.36,NW,315,6.2,6.2,78,0.00,,,0.00,VWS V14.01,2013-02-21 14:29:00,
2013-02-21 09:34:00,15.8,10.3,30.36,NE,45,6.2,6.2,78,0.00,,,0.00,VWS V14.01,2013-02-21 14:34:00,
2013-02-21 09:39:00,16.0,10.4,30.36,ENE,68,0.0,6.3,78,0.00,,,0.00,VWS V14.01,2013-02-21 14:39:00,
2013-02-21 09:44:00,16.0,10.2,30.36,NW,315,7.3,9.6,78,0.00,,,0.00,VWS V14.01,2013-02-21 14:44:00,
2013-02-21 09:49:00,16.0,10.1,30.36,NW,315,8.4,8.4,77,0.00,,,0.00,VWS V14.01,2013-02-21 14:49:00,
2013-02-21 09:54:00,16.0,9.9,30.36,NW,315,3.4,7.2,76,0.00,,,0.00,VWS V14.01,2013-02-21 14:54:00,
2013-02-21 09:59:00,16.3,10.4,30.36,ESE,112,2.8,5.8,77,0.00,,,0.00,VWS V14.01,2013-02-21 14:59:00,
2013-02-21 10:04:00,16.3,10.4,30.36,NE,45,10.1,10.1,77,0.00,,,0.00,VWS V14.01,2013-02-21 15:04:00,
2013-02-21 10:09:00,16.7,10.8,30.39,NE,45,2.2,2.9,77,0.00,,,0.00,VWS V14.01,2013-02-21 15:09:00,
2013-02-21 10:14:00,16.5,10.4,30.39,NW,315,0.0,0.0,76,0.00,,,0.00,VWS V14.01,2013-02-21 15:14:00,
2013-02-21 10:19:00,16.2,9.6,30.39,NW,315,7.3,7.3,75,0.00,,,0.00,VWS V14.01,2013-02-21 15:19:00,
2013-02-21 10:24:00,16.9,10.9,30.39,ESE,112,0.0,0.0,77,0.00,,,0.00,VWS V14.01,2013-02-21 15:24:00,
2013-02-21 10:30:00,16.9,10.8,30.39,ESE,112,2.2,2.2,76,0.00,,,0.00,VWS V14.01,2013-02-21 15:30:00,
2013-02-21 10:35:00,16.7,10.3,30.39,ENE,68,2.2,2.2,76,0.00,,,0.00,VWS V14.01,2013-02-21 15:35:00,
2013-02-21 10:40:00,16.7,10.2,30.36,ENE,68,2.2,2.2,75,0.00,,,0.00,VWS V14.01,2013-02-21 15:40:00,
2013-02-21 10:45:00,16.5,9.8,30.36,ENE,68,2.2,2.2,74,0.00,,,0.00,VWS V14.01,2013-02-21 15:45:00,
2013-02-21 10:50:00,16.7,10.2,30.36,NW,315,0.0,2.9,75,0.00,,,0.00,VWS V14.01,2013-02-21 15:50:00,
2013-02-21 10:55:00,16.7,10.0,30.39,NW,315,0.0,1.9,74,0.00,,,0.00,VWS V14.01,2013-02-21 15:55:00,
2013-02-21 11:00:00,16.9,10.2,30.39,ESE,112,0.0,0.0,74,0.00,,,0.00,VWS V14.01,2013-02-21 16:00:00,
2013-02-21 11:05:00,17.1,10.2,30.39,NE,45,3.4,3.4,74,0.00,,,0.00,VWS V14.01,2013-02-21 16:05:00,
2013-02-21 11:10:00,17.1,10.2,30.39,NE,45,5.0,9.1,74,0.00,,,0.00,VWS V14.01,2013-02-21 16:10:00,
2013-02-21 11:15:00,17.6,10.6,30.39,NW,315,11.7,11.7,74,0.00,,,0.00,VWS V14.01,2013-02-21 16:15:00,
2013-02-21 11:20:00,17.6,10.6,30.39,NW,315,5.0,6.3,74,0.00,,,0.00,VWS V14.01,2013-02-21 16:20:00,
2013-02-21 11:25:00,18.3,11.3,30.39,West,270,0.0,5.8,74,0.00,,,0.00,VWS V14.01,2013-02-21 16:25:00,
2013-02-21 11:30:00,18.5,11.5,30.39,NW,315,2.2,2.2,74,0.00,,,0.00,VWS V14.01,2013-02-21 16:30:00,
2013-02-21 11:35:00,18.5,11.3,30.39,ESE,112,0.0,2.4,73,0.00,,,0.00,VWS V14.01,2013-02-21 16:35:00,
2013-02-21 11:40:00,18.5,11.3,30.39,SSW,202,2.8,4.8,73,0.00,,,0.00,VWS V14.01,2013-02-21 16:40:00,
2013-02-21 11:45:00,18.1,11.0,30.39,SE,135,5.0,5.0,73,0.00,,,0.00,VWS V14.01,2013-02-21 16:45:00,
2013-02-21 11:50:00,18.1,10.8,30.39,SE,135,5.0,5.0,72,0.00,,,0.00,VWS V14.01,2013-02-21 16:50:00,
2013-02-21 11:55:00,18.3,11.0,30.39,SE,135,0.0,4.3,72,0.00,,,0.00,VWS V14.01,2013-02-21 16:55:00,
2013-02-21 12:00:00,18.3,11.1,30.39,SE,135,3.4,3.4,73,0.00,,,0.00,VWS V14.01,2013-02-21 17:00:00,
2013-02-21 12:05:00,18.1,10.8,30.39,SE,135,3.4,3.4,72,0.00,,BKN021,0.00,VWS V14.01,2013-02-21 17:05:00,
2013-02-21 12:10:00,18.1,10.8,30.39,SE,135,0.0,0.0,72,0.00,,BKN021,0.00,VWS V14.01,2013-02-21 17:10:00,
2013-02-21 12:15:00,18.1,10.8,30.39,SE,135,0.0,0.0,72,0.00,,BKN021,0.00,VWS V14.01,2013-02-21 17:15:00,
2013-02-21 12:20:00,18.5,11.1,30.39,SE,135,0.0,0.0,72,0.00,,BKN021,0.00,VWS V14.01,2013-02-21 17:20:00,
2013-02-21 12:25:00,18.5,11.1,30.39,SE,135,0.0,0.0,72,0.00,,BKN021,0.00,VWS V14.01,2013-02-21 17:25:00,
2013-02-21 12:30:00,18.9,11.6,30.39,SE,135,0.0,0.0,73,0.00,,BKN021,0.00,VWS V14.01,2013-02-21 17:30:00,
2013-02-21 12:35:00,18.7,11.3,30.39,SE,135,0.0,0.0,72,0.00,,BKN021,0.00,VWS V14.01,2013-02-21 17:35:00,
2013-02-21 12:40:00,19.8,12.4,30.39,ENE,68,0.0,0.0,72,0.00,,BKN021,0.00,VWS V14.01,2013-02-21 17:40:00,
2013-02-21 12:45:00,20.3,12.7,30.39,NW,315,3.9,3.9,72,0.00,,BKN021,0.00,VWS V14.01,2013-02-21 17:45:00,
2013-02-21 12:50:00,19.8,12.2,30.39,WNW,292,5.6,5.6,72,0.00,,BKN021,0.00,VWS V14.01,2013-02-21 17:50:00,
2013-02-21 12:55:00,19.8,12.2,30.39,NW,315,0.0,7.2,72,0.00,,BKN021,0.00,VWS V14.01,2013-02-21 17:55:00,
2013-02-21 13:00:00,20.8,13.2,30.39,SE,135,5.0,5.0,72,0.00,,BKN023,0.00,VWS V14.01,2013-02-21 18:00:00,
2013-02-21 13:05:00,21.0,13.4,30.39,ESE,112,6.7,6.7,72,0.00,,BKN023,0.00,VWS V14.01,2013-02-21 18:05:00,
2013-02-21 13:10:00,21.4,13.6,30.39,NW,315,3.9,3.9,72,0.00,,BKN023,0.00,VWS V14.01,2013-02-21 18:10:00,
2013-02-21 13:15:00,21.9,14.1,30.39,WSW,248,2.8,2.8,72,0.00,,BKN023,0.00,VWS V14.01,2013-02-21 18:15:00,
2013-02-21 13:20:00,20.7,12.9,30.39,NW,315,8.4,8.4,72,0.00,,BKN023,0.00,VWS V14.01,2013-02-21 18:20:00,
2013-02-21 13:25:00,20.5,12.8,30.39,East,90,0.0,6.3,72,0.00,,BKN023,0.00,VWS V14.01,2013-02-21 18:25:00,
2013-02-21 13:30:00,21.2,13.4,30.39,ESE,112,2.8,2.8,72,0.00,,SCT025,0.00,VWS V14.01,2013-02-21 18:30:00,
2013-02-21 13:35:00,21.0,13.3,30.39,NW,315,3.9,4.3,72,0.00,,SCT025,0.00,VWS V14.01,2013-02-21 18:35:00,
2013-02-21 13:40:00,21.7,14.0,30.39,WNW,292,3.9,3.9,72,0.00,,SCT025,0.00,VWS V14.01,2013-02-21 18:40:00,
2013-02-21 13:45:00,22.1,14.3,30.39,NW,315,6.2,6.2,72,0.00,,SCT025,0.00,VWS V14.01,2013-02-21 18:45:00,
2013-02-21 13:50:00,22.1,14.1,30.39,NW,315,3.9,3.9,71,0.00,,SCT025,0.00,VWS V14.01,2013-02-21 18:50:00,
2013-02-21 13:55:00,21.2,13.4,30.39,NW,315,3.9,3.9,72,0.00,,SCT025,0.00,VWS V14.01,2013-02-21 18:55:00,
2013-02-21 14:00:00,21.7,14.0,30.39,NW,315,3.9,3.9,72,0.00,,SCT025,0.00,VWS V14.01,2013-02-21 19:00:00,
2013-02-21 14:05:00,22.8,14.8,30.39,NW,315,3.9,3.9,71,0.00,,SCT025,0.00,VWS V14.01,2013-02-21 19:05:00,
2013-02-21 14:10:00,23.0,15.0,30.39,NW,315,3.9,3.9,71,0.00,,BKN025,0.00,VWS V14.01,2013-02-21 19:10:00,
2013-02-21 14:15:00,22.3,14.3,30.39,NW,315,3.9,3.9,71,0.00,,BKN025,0.00,VWS V14.01,2013-02-21 19:15:00,
2013-02-21 14:20:00,22.1,14.1,30.39,NW,315,3.9,3.9,71,0.00,,BKN025,0.00,VWS V14.01,2013-02-21 19:20:00,
2013-02-21 14:25:00,22.8,14.8,30.39,NW,315,3.9,3.9,71,0.00,,BKN025,0.00,VWS V14.01,2013-02-21 19:25:00,
2013-02-21 14:30:00,23.0,15.0,30.39,NW,315,3.9,3.9,71,0.00,,BKN025,0.00,VWS V14.01,2013-02-21 19:30:00,
2013-02-21 14:35:00,21.9,14.0,30.39,NW,315,3.9,3.9,71,0.00,,BKN025,0.00,VWS V14.01,2013-02-21 19:35:00,
2013-02-21 14:40:00,21.9,14.0,30.39,NW,315,3.9,3.9,71,0.00,,BKN025,0.00,VWS V14.01,2013-02-21 19:40:00,
2013-02-21 14:45:00,21.9,14.0,30.39,NW,315,3.9,3.9,71,0.00,,BKN025,0.00,VWS V14.01,2013-02-21 19:45:00,
2013-02-21 14:50:00,22.5,14.5,30.39,NW,315,3.9,3.9,71,0.00,,BKN025,0.00,VWS V14.01,2013-02-21 19:50:00,
2013-02-21 14:55:00,22.8,14.8,30.36,NW,315,3.9,3.9,71,0.00,,BKN025,0.00,VWS V14.01,2013-02-21 19:55:00,
2013-02-21 15:00:00,23.0,15.0,30.36,NW,315,3.9,3.9,71,0.00,,BKN025,0.00,VWS V14.01,2013-02-21 20:00:00,
2013-02-21 15:05:00,23.0,15.0,30.36,NE,45,0.0,0.0,71,0.00,,BKN027,0.00,VWS V14.01,2013-02-21 20:05:00,
2013-02-21 15:10:00,23.5,15.5,30.36,NE,45,0.0,0.0,71,0.00,,BKN027,0.00,VWS V14.01,2013-02-21 20:10:00,
2013-02-21 15:15:00,23.4,15.4,30.36,ESE,112,2.8,2.8,71,0.00,,BKN027,0.00,VWS V14.01,2013-02-21 20:15:00,
2013-02-21 15:20:00,23.5,15.5,30.36,ESE,112,2.8,2.8,71,0.00,,BKN210,0.00,VWS V14.01,2013-02-21 20:20:00,
2013-02-21 15:25:00,23.4,15.4,30.33,ESE,112,2.8,2.8,71,0.00,,BKN210,0.00,VWS V14.01,2013-02-21 20:25:00,
2013-02-21 15:30:00,23.0,15.0,30.33,ESE,112,2.8,2.8,71,0.00,,BKN210,0.00,VWS V14.01,2013-02-21 20:30:00,
2013-02-21 15:35:00,22.8,15.0,30.33,ESE,112,2.8,2.8,72,0.00,,BKN210,0.00,VWS V14.01,2013-02-21 20:35:00,
2013-02-21 15:40:00,21.9,14.0,30.33,ESE,112,2.8,2.8,71,0.00,,BKN210,0.00,VWS V14.01,2013-02-21 20:40:00,
2013-02-21 15:45:00,21.7,14.0,30.33,ESE,112,2.8,2.8,72,0.00,,BKN210,0.00,VWS V14.01,2013-02-21 20:45:00,
2013-02-21 15:50:00,21.9,14.1,30.33,ESE,112,2.8,2.8,72,0.00,,BKN210,0.00,VWS V14.01,2013-02-21 20:50:00,
2013-02-21 15:55:00,21.7,14.0,30.30,ESE,112,2.8,2.8,72,0.00,,BKN210,0.00,VWS V14.01,2013-02-21 20:55:00,
2013-02-21 16:00:00,21.4,13.6,30.30,ESE,112,2.8,2.8,72,0.00,,BKN210,0.00,VWS V14.01,2013-02-21 21:00:00,
2013-02-21 16:05:00,21.2,13.6,30.30,ESE,112,2.8,2.8,72,0.00,,BKN210,0.00,VWS V14.01,2013-02-21 21:05:00,
2013-02-21 16:10:00,21.2,13.6,30.33,ESE,112,2.8,2.8,72,0.00,,BKN210,0.00,VWS V14.01,2013-02-21 21:10:00,
2013-02-21 16:15:00,21.2,13.6,30.33,ESE,112,2.8,2.8,72,0.00,,BKN210,0.00,VWS V14.01,2013-02-21 21:15:00,
2013-02-21 16:21:00,21.0,13.6,30.33,ESE,112,2.8,2.8,72,0.00,,BKN210,0.00,VWS V14.01,2013-02-21 21:21:00,
2013-02-21 16:26:00,20.8,13.4,30.33,ESE,112,2.8,2.8,72,0.00,,BKN210,0.00,VWS V14.01,2013-02-21 21:26:00,
2013-02-21 16:31:00,20.8,13.6,30.33,ESE,112,2.8,2.8,73,0.00,,BKN210,0.00,VWS V14.01,2013-02-21 21:31:00,
2013-02-21 16:36:00,20.3,12.9,30.33,ESE,112,2.8,2.8,72,0.00,,BKN210,0.00,VWS V14.01,2013-02-21 21:36:00,
2013-02-21 16:41:00,19.8,12.5,30.33,ESE,112,2.8,2.8,73,0.00,,BKN210,0.00,VWS V14.01,2013-02-21 21:41:00,
2013-02-21 16:46:00,19.6,12.4,30.33,ESE,112,2.8,2.8,73,0.00,,BKN210,0.00,VWS V14.01,2013-02-21 21:46:00,
2013-02-21 16:51:00,19.6,12.6,30.33,ESE,112,2.8,2.8,74,0.00,,BKN210,0.00,VWS V14.01,2013-02-21 21:51:00,
2013-02-21 16:56:00,19.4,12.5,30.33,ESE,112,2.8,2.8,74,0.00,,BKN210,0.00,VWS V14.01,2013-02-21 21:56:00,
2013-02-21 17:01:00,19.4,12.5,30.33,ESE,112,2.8,2.8,74,0.00,,BKN210,0.00,VWS V14.01,2013-02-21 22:01:00,
2013-02-21 17:06:00,19.4,12.6,30.33,ESE,112,0.0,0.0,74,0.00,,BKN210,0.00,VWS V14.01,2013-02-21 22:06:00,
2013-02-21 17:11:00,19.2,12.5,30.39,ESE,112,0.0,0.0,74,0.00,,BKN210,0.00,VWS V14.01,2013-02-21 22:11:00,
2013-02-21 17:16:00,19.2,12.6,30.39,ESE,112,0.0,0.0,75,0.00,,BKN210,0.00,VWS V14.01,2013-02-21 22:16:00,
2013-02-21 17:21:00,19.0,12.6,30.39,ESE,112,0.0,0.0,76,0.00,,BKN210,0.00,VWS V14.01,2013-02-21 22:21:00,
2013-02-21 17:26:00,19.0,12.6,30.39,ESE,112,0.0,0.0,76,0.00,,BKN210,0.00,VWS V14.01,2013-02-21 22:26:00,
2013-02-21 17:31:00,19.0,12.7,30.39,ESE,112,0.0,0.0,76,0.00,,BKN210,0.00,VWS V14.01,2013-02-21 22:31:00,
2013-02-21 17:36:00,19.0,12.7,30.39,ESE,112,0.0,0.0,76,0.00,,BKN210,0.00,VWS V14.01,2013-02-21 22:36:00,
2013-02-21 17:41:00,19.0,12.9,30.39,ESE,112,0.0,0.0,76,0.00,,BKN210,0.00,VWS V14.01,2013-02-21 22:41:00,
2013-02-21 17:46:00,18.9,12.7,30.39,ESE,112,0.0,0.0,76,0.00,,BKN210,0.00,VWS V14.01,2013-02-21 22:46:00,
2013-02-21 17:51:00,18.9,12.7,30.39,ESE,112,0.0,0.0,76,0.00,,BKN210,0.00,VWS V14.01,2013-02-21 22:51:00,
2013-02-21 17:56:00,18.7,12.5,30.36,ESE,112,0.0,0.0,76,0.00,,BKN210,0.00,VWS V14.01,2013-02-21 22:56:00,
2013-02-21 18:01:00,18.7,12.5,30.36,ESE,112,0.0,0.0,76,0.00,,BKN210,0.00,VWS V14.01,2013-02-21 23:01:00,
2013-02-21 18:06:00,18.5,12.4,30.36,ESE,112,0.0,0.0,76,0.00,,OVC210,0.00,VWS V14.01,2013-02-21 23:06:00,
2013-02-21 18:11:00,18.5,12.5,30.36,ESE,112,0.0,0.0,77,0.00,,OVC210,0.00,VWS V14.01,2013-02-21 23:11:00,
2013-02-21 18:16:00,18.5,12.5,30.36,ESE,112,0.0,0.0,77,0.00,,OVC210,0.00,VWS V14.01,2013-02-21 23:16:00,
2013-02-21 18:21:00,18.5,12.5,30.36,ESE,112,3.4,3.4,77,0.00,,OVC210,0.00,VWS V14.01,2013-02-21 23:21:00,
2013-02-21 18:26:00,18.5,12.5,30.39,ESE,112,3.4,3.4,77,0.00,,OVC210,0.00,VWS V14.01,2013-02-21 23:26:00,
2013-02-21 18:31:00,18.5,12.5,30.39,ESE,112,0.0,0.0,77,0.00,,OVC210,0.00,VWS V14.01,2013-02-21 23:31:00,
2013-02-21 18:36:00,18.5,12.5,30.39,ESE,112,0.0,0.0,77,0.00,,OVC210,0.00,VWS V14.01,2013-02-21 23:36:00,
2013-02-21 18:41:00,18.5,12.5,30.39,ESE,112,0.0,0.0,77,0.00,,OVC210,0.00,VWS V14.01,2013-02-21 23:41:00,
2013-02-21 18:46:00,18.3,12.3,30.39,ESE,112,3.4,3.4,77,0.00,,OVC210,0.00,VWS V14.01,2013-02-21 23:46:00,
2013-02-21 18:51:00,18.3,12.3,30.39,ESE,112,3.4,3.4,77,0.00,,OVC210,0.00,VWS V14.01,2013-02-21 23:51:00,
2013-02-21 18:56:00,18.3,12.5,30.39,ESE,112,0.0,0.0,78,0.00,,OVC210,0.00,VWS V14.01,2013-02-21 23:56:00,
2013-02-21 19:01:00,18.3,12.5,30.39,ESE,112,0.0,0.0,78,0.00,,OVC210,0.00,VWS V14.01,2013-02-22 00:01:00,
2013-02-21 19:06:00,18.3,12.5,30.39,ESE,112,5.0,5.0,78,0.00,,OVC210,0.00,VWS V14.01,2013-02-22 00:06:00,
2013-02-21 19:11:00,18.3,12.5,30.39,ESE,112,0.0,0.0,78,0.00,,OVC210,0.00,VWS V14.01,2013-02-22 00:11:00,
2013-02-21 19:16:00,18.5,12.6,30.39,ESE,112,0.0,2.4,78,0.00,,OVC210,0.00,VWS V14.01,2013-02-22 00:16:00,
2013-02-21 19:21:00,18.5,12.6,30.39,ESE,112,0.0,0.0,78,0.00,,OVC210,0.00,VWS V14.01,2013-02-22 00:21:00,
2013-02-21 19:26:00,18.5,12.6,30.39,ESE,112,0.0,0.0,78,0.00,,OVC210,0.00,VWS V14.01,2013-02-22 00:26:00,
2013-02-21 19:31:00,18.5,12.6,30.39,ESE,112,0.0,0.0,78,0.00,,OVC210,0.00,VWS V14.01,2013-02-22 00:31:00,
2013-02-21 19:36:00,18.5,12.8,30.39,ESE,112,0.0,0.0,78,0.00,,OVC210,0.00,VWS V14.01,2013-02-22 00:36:00,
2013-02-21 19:41:00,18.5,12.8,30.39,ESE,112,0.0,0.0,78,0.00,,OVC210,0.00,VWS V14.01,2013-02-22 00:41:00,
2013-02-21 19:46:00,18.7,13.0,30.39,ESE,112,0.0,0.0,78,0.00,,OVC210,0.00,VWS V14.01,2013-02-22 00:46:00,
2013-02-21 19:51:00,18.7,13.0,30.39,ENE,68,6.2,6.2,78,0.00,,OVC210,0.00,VWS V14.01,2013-02-22 00:51:00,
2013-02-21 19:56:00,18.7,13.0,30.36,ESE,112,9.5,9.5,78,0.00,,OVC210,0.00,VWS V14.01,2013-02-22 00:56:00,
2013-02-21 20:01:00,18.7,13.0,30.36,ESE,112,2.2,2.9,78,0.00,,OVC210,0.00,VWS V14.01,2013-02-22 01:01:00,
2013-02-21 20:06:00,18.7,13.1,30.36,East,90,5.6,5.6,78,0.00,,OVC210,0.00,VWS V14.01,2013-02-22 01:06:00,
2013-02-21 20:11:00,18.9,13.3,30.36,NW,315,2.8,4.8,78,0.00,,OVC210,0.00,VWS V14.01,2013-02-22 01:11:00,
2013-02-21 20:16:00,19.0,13.6,30.36,ESE,112,3.4,3.4,79,0.00,,OVC210,0.00,VWS V14.01,2013-02-22 01:16:00,
2013-02-21 20:21:00,19.0,13.6,30.36,ENE,68,3.4,3.4,79,0.00,,OVC210,0.00,VWS V14.01,2013-02-22 01:21:00,
2013-02-21 20:26:00,19.0,13.6,30.36,ESE,112,2.8,2.8,79,0.00,,OVC210,0.00,VWS V14.01,2013-02-22 01:26:00,
2013-02-21 20:31:00,19.0,13.6,30.36,ENE,68,2.2,2.2,79,0.00,,OVC210,0.00,VWS V14.01,2013-02-22 01:31:00,
2013-02-21 20:36:00,19.0,13.6,30.36,ENE,68,2.2,2.2,79,0.00,,OVC210,0.00,VWS V14.01,2013-02-22 01:36:00,
2013-02-21 20:41:00,19.0,13.8,30.36,ESE,112,5.0,5.0,80,0.00,,OVC210,0.00,VWS V14.01,2013-02-22 01:41:00,
2013-02-21 20:46:00,19.0,13.8,30.36,SE,135,2.2,2.2,80,0.00,,OVC210,0.00,VWS V14.01,2013-02-22 01:46:00,
2013-02-21 20:51:00,19.2,13.9,30.36,ENE,68,5.0,5.0,80,0.00,,OVC210,0.00,VWS V14.01,2013-02-22 01:51:00,
2013-02-21 20:56:00,19.2,14.1,30.33,ESE,112,2.2,2.2,80,0.00,,OVC210,0.00,VWS V14.01,2013-02-22 01:56:00,
2013-02-21 21:01:00,19.2,14.1,30.33,ESE,112,3.4,3.4,80,0.00,,OVC210,0.00,VWS V14.01,2013-02-22 02:01:00,
2013-02-21 21:06:00,19.2,14.1,30.33,ESE,112,0.0,0.0,80,0.00,,OVC018,0.00,VWS V14.01,2013-02-22 02:06:00,
2013-02-21 21:11:00,19.2,14.1,30.33,SE,135,2.2,6.7,80,0.00,,OVC018,0.00,VWS V14.01,2013-02-22 02:11:00,
2013-02-21 21:16:00,19.2,14.2,30.33,ESE,112,8.4,8.4,80,0.00,,OVC018,0.00,VWS V14.01,2013-02-22 02:16:00,
2013-02-21 21:21:00,19.4,14.5,30.33,ENE,68,0.0,0.0,81,0.00,,OVC018,0.00,VWS V14.01,2013-02-22 02:21:00,
2013-02-21 21:26:00,19.4,14.7,30.30,NW,315,0.0,2.4,82,0.00,,OVC018,0.00,VWS V14.01,2013-02-22 02:26:00,
2013-02-21 21:31:00,19.4,14.8,30.30,SE,135,2.2,2.2,82,0.00,,OVC018,0.00,VWS V14.01,2013-02-22 02:31:00,
2013-02-21 21:36:00,19.4,14.8,30.30,ESE,112,0.0,2.9,82,0.00,,OVC018,0.00,VWS V14.01,2013-02-22 02:36:00,
2013-02-21 21:41:00,19.6,15.1,30.33,NE,45,0.0,6.3,82,0.00,,OVC018,0.00,VWS V14.01,2013-02-22 02:41:00,
2013-02-21 21:46:00,19.6,15.1,30.33,ESE,112,0.0,0.0,82,0.00,,OVC018,0.00,VWS V14.01,2013-02-22 02:46:00,
2013-02-21 21:51:00,19.8,15.4,30.33,SE,135,5.6,5.6,83,0.00,,OVC018,0.00,VWS V14.01,2013-02-22 02:51:00,
2013-02-21 21:56:00,19.8,15.6,30.33,SE,135,3.4,3.4,84,0.00,,OVC018,0.00,VWS V14.01,2013-02-22 02:56:00,
2013-02-21 22:01:00,19.9,15.9,30.33,ESE,112,5.0,5.0,84,0.00,,OVC016,0.00,VWS V14.01,2013-02-22 03:01:00,
2013-02-21 22:06:00,19.9,15.9,30.33,SE,135,0.0,6.3,84,0.00,,OVC014,0.00,VWS V14.01,2013-02-22 03:06:00,
2013-02-21 22:11:00,19.9,16.0,30.33,SE,135,2.2,4.8,84,0.00,,OVC014,0.00,VWS V14.01,2013-02-22 03:11:00,
2013-02-21 22:16:00,20.1,16.3,30.33,East,90,0.0,0.0,85,0.00,,OVC014,0.00,VWS V14.01,2013-02-22 03:16:00,
2013-02-21 22:21:00,20.1,16.3,30.33,ESE,112,0.0,0.0,85,0.00,,OVC014,0.00,VWS V14.01,2013-02-22 03:21:00,
2013-02-21 22:26:00,20.3,16.7,30.33,SE,135,0.0,1.9,86,0.00,,OVC014,0.00,VWS V14.01,2013-02-22 03:26:00,
2013-02-21 22:31:00,20.3,16.8,30.33,SSE,158,2.8,2.8,86,0.00,,OVC014,0.00,VWS V14.01,2013-02-22 03:31:00,
2013-02-21 22:36:00,20.3,16.8,30.33,SE,135,3.9,3.9,86,0.00,,OVC014,0.00,VWS V14.01,2013-02-22 03:36:00,
2013-02-21 22:41:00,20.3,17.1,30.33,SE,135,0.0,2.4,87,0.00,,OVC014,0.00,VWS V14.01,2013-02-22 03:41:00,
2013-02-21 22:46:00,20.3,17.1,30.33,SE,135,0.0,2.9,87,0.00,,OVC014,0.00,VWS V14.01,2013-02-22 03:46:00,
2013-02-21 22:51:00,20.5,17.4,30.33,ESE,112,2.8,2.8,88,0.00,,OVC014,0.00,VWS V14.01,2013-02-22 03:51:00,
2013-02-21 22:56:00,20.5,17.5,30.30,ENE,68,2.2,2.2,88,0.00,,OVC014,0.00,VWS V14.01,2013-02-22 03:56:00,
2013-02-21 23:01:00,20.5,17.5,30.30,SE,135,0.0,0.0,88,0.00,,OVC009,0.00,VWS V14.01,2013-02-22 04:01:00,
2013-02-21 23:06:00,20.7,17.8,30.30,ESE,112,2.8,2.9,88,0.00,,OVC009,0.00,VWS V14.01,2013-02-22 04:06:00,
2013-02-21 23:11:00,20.7,17.8,30.33,ESE,112,0.0,0.0,88,0.00,,OVC009,0.00,VWS V14.01,2013-02-22 04:11:00,
2013-02-21 23:16:00,20.7,17.9,30.33,SSE,158,2.8,5.3,89,0.00,,OVC009,0.00,VWS V14.01,2013-02-22 04:16:00,
2013-02-21 23:21:00,20.8,18.2,30.33,SSE,158,0.0,1.9,90,0.00,,OVC009,0.00,VWS V14.01,2013-02-22 04:21:00,
2013-02-21 23:26:00,20.8,18.5,30.30,ESE,112,0.0,0.0,90,0.00,,OVC009,0.00,VWS V14.01,2013-02-22 04:26:00,
2013-02-21 23:31:00,21.0,18.8,30.30,ESE,112,0.0,0.0,91,0.00,,OVC009,0.00,VWS V14.01,2013-02-22 04:31:00,
2013-02-21 23:36:00,21.0,18.8,30.30,NE,45,0.0,0.0,91,0.00,,OVC009,0.00,VWS V14.01,2013-02-22 04:36:00,
2013-02-21 23:41:00,21.0,18.9,30.30,ESE,112,0.0,3.4,92,0.00,,OVC009,0.00,VWS V14.01,2013-02-22 04:41:00,
2013-02-21 23:47:00,21.2,19.1,30.30,SE,135,6.7,6.7,92,0.00,,OVC009,0.00,VWS V14.01,2013-02-22 04:47:00,
2013-02-21 23:51:00,21.2,19.2,30.30,SE,135,0.0,4.8,92,0.00,,OVC009,0.00,VWS V14.01,2013-02-22 04:51:00,
2013-02-21 23:57:00,21.2,19.2,30.30,SE,135,0.0,0.0,92,0.00,,OVC009,0.00,VWS V14.01,2013-02-22 04:57:00,